Location: Willow Springs
(37.9952°N, 120.2591°W)
Time: 23:25:23
(UTC+00:00)

Cosmos 2278 Rocket - Pass Details

Date: 03 August 2024
Orbit: 841 x 844 km, 71.0° (Epoch: 10 September)

Event Time Altitude Azimuth Distance (km) Brightness Sun altitude
Rises 12:07:00 0° 340° (NNW) 3,403 5.5 -11.2°
Reaches altitude 10° 12:09:28 10° 343° (NNW) 2,466 4.8 -10.8°
Maximum altitude 12:15:06 68° 66° (ENE) 908 2.7 -9.8°
Drops below altitude 10° 12:20:42 10° 149° (SSE) 2,453 4.6 -8.9°
Sets 12:23:10 0° 152° (SSE) 3,385 5.3 -8.5°
